Wind_Speed
20 19 19 19 20 19 21 22 20 17 16 16 15 14 13 11 9 8 7 5 5 6 5 5 5 4 4 4 4 4 4 4 3 2 2 2 2 2 2 2 2 2 2 2 3 3 3 3 3
18 18 19 20 20 21 22 22 20 18 17 16 15 14 13 10 9 8 6 5 5 5 5 4 4 3 3 4 4 4 4 3 3 2 2 1 1 1 2 2 2 2 2 2 2 2 3 3 3
16 16 19 20 20 21 22 22 21 21 19 17 15 15 13 11 10 8 7 6 6 5 4 4 3 3 3 3 4 3 3 3 2 2 2 1 1 1 1 2 2 2 2 2 2 2 3 3 3
15 16 19 19 20 21 21 20 21 21 19 18 18 15 13 12 11 10 9 8 7 5 4 3 2 2 2 3 3 3 3 2 2 2 2 2 1 1 2 2 3 2 2 2 2 2 3 3 3
14 16 18 20 21 21 21 20 20 19 19 19 18 16 14 14 13 11 10 9 8 6 5 3 2 2 2 2 2 2 2 2 2 2 2 2 1 1 2 2 3 3 3 2 2 2 2 3 3
13 16 18 19 20 19 19 20 19 18 19 18 18 17 16 15 13 12 11 10 8 7 6 5 3 2 2 1 1 1 1 2 2 2 2 2 2 1 2 2 3 2 3 2 2 2 3 3 3
13 16 18 18 18 18 18 18 18 19 20 19 19 18 17 15 14 13 12 11 9 8 7 6 5 3 2 1 1 1 1 1 1 1 1 1 1 1 1 2 2 2 2 2 3 3 3 3 3
13 16 17 17 16 17 17 17 18 19 20 19 19 19 18 16 15 14 13 11 10 9 8 6 5 4 2 1 1 1 1 1 1 0 0 1 1 1 1 1 1 2 2 2 3 3 4 4 4
12 14 14 14 14 14 15 16 17 19 19 19 19 18 17 17 16 15 14 12 11 10 8 7 6 5 3 2 1 1 1 1 2 1 1 1 1 1 1 1 2 2 2 2 3 3 4 4 4
10 12 12 12 11 12 14 14 15 17 19 18 18 18 17 17 16 15 14 13 12 11 10 9 7 6 4 2 2 2 2 2 2 2 2 2 1 1 0 1 1 2 2 2 3 3 3 3 3
8 9 9 9 10 12 12 13 14 16 17 18 18 18 17 17 16 15 14 13 12 12 11 10 8 6 5 4 3 3 2 2 2 3 2 2 2 1 0 1 1 1 2 2 2 2 3 3 3
6 6 5 7 9 10 11 12 14 15 17 18 18 18 17 17 15 15 14 13 12 12 11 10 9 7 6 5 3 2 2 2 2 3 3 2 2 2 1 1 1 1 1 1 2 2 3 3 3
4 5 5 7 7 9 10 12 14 15 17 19 19 18 18 17 16 15 14 12 12 11 10 9 8 7 7 5 4 2 2 2 2 2 3 3 3 3 2 2 2 2 1 1 2 2 2 3 3
6 5 6 6 7 9 11 12 14 16 17 18 19 19 18 18 18 17 15 13 12 11 10 9 8 7 7 6 4 2 1 2 3 3 4 4 4 3 3 3 3 2 1 1 2 2 2 2 2
6 6 6 6 8 10 12 12 14 15 17 17 18 19 19 19 18 17 16 15 13 12 11 10 8 7 6 5 4 2 1 2 3 3 4 4 4 4 4 3 3 2 2 1 1 2 2 2 1
6 5 4 5 7 10 11 12 14 15 16 17 18 19 20 20 18 17 16 15 14 13 12 11 10 8 6 5 4 2 2 3 4 4 4 4 5 5 4 3 3 3 3 2 2 2 1 1 1
5 3 2 4 7 9 11 12 14 14 16 17 18 19 20 20 18 17 16 15 14 13 12 12 11 10 7 5 3 2 2 3 4 4 5 4 5 5 4 4 4 4 3 3 3 3 2 2 2
4 2 1 2 5 8 11 12 13 14 16 17 18 18 20 20 19 18 17 16 15 14 13 12 12 10 7 5 4 1 3 3 4 5 5 5 5 5 5 5 5 4 4 4 4 4 3 3 3
4 3 2 3 6 8 9 10 13 14 15 17 19 19 19 19 19 18 17 17 16 15 14 13 11 9 6 5 3 2 3 4 5 5 5 5 5 5 5 5 5 5 5 4 4 4 4 4 4
6 5 5 7 9 9 8 8 11 14 15 16 18 19 19 19 18 17 16 16 16 16 15 14 11 7 4 4 2 3 4 4 5 5 6 6 6 6 6 6 6 6 6 5 5 5 5 5 5
9 8 7 8 9 9 9 7 9 11 13 15 17 19 19 18 17 16 15 15 16 16 14 13 11 7 4 3 2 3 4 5 6 6 6 5 6 6 6 7 7 7 7 7 6 6 7 7 6
8 9 8 8 8 9 10 9 10 11 12 15 16 18 19 18 18 17 15 16 16 14 12 12 10 6 4 3 2 3 4 5 6 6 5 5 5 6 7 7 7 7 7 7 7 8 8 8 8
9 10 9 9 7 7 9 10 10 11 12 14 17 19 19 18 17 17 16 16 15 14 12 11 10 6 5 3 1 2 3 4 5 5 6 6 7 7 8 8 8 8 8 8 8 8 9 9 9
11 11 10 9 7 6 8 10 11 12 13 14 16 18 17 17 16 17 16 16 15 13 11 10 9 7 6 4 2 0 2 4 5 5 5 6 6 7 8 9 9 10 9 9 9 9 10 10 11
13 12 12 11 8 6 8 10 12 12 12 14 16 16 16 15 15 15 16 15 15 13 10 9 8 7 6 4 3 1 1 3 5 6 6 6 6 7 7 8 9 10 10 10 10 11 11 12 13
13 14 13 13 10 9 9 11 12 12 12 15 15 15 14 13 14 15 15 14 14 11 9 8 8 8 7 5 3 2 1 2 3 5 5 6 6 7 7 7 8 9 10 11 11 12 12 13 14
14 14 14 14 13 11 11 11 12 13 15 16 15 14 13 13 13 13 13 13 12 10 9 8 8 7 7 5 5 3 2 2 3 4 5 6 6 6 7 7 8 9 10 11 12 13 13 13 14
15 15 15 15 15 14 13 13 14 15 16 16 16 15 13 13 13 13 13 12 11 10 8 8 8 8 7 6 6 5 3 3 4 4 4 5 6 6 6 8 9 10 10 11 12 12 13 14 15
15 15 16 16 16 16 16 16 16 16 16 16 16 15 14 13 13 13 12 11 10 9 7 8 8 9 8 7 6 5 4 3 3 4 4 5 6 6 7 8 9 10 11 11 12 13 13 14 15
15 16 17 17 17 17 18 18 18 18 17 17 17 17 16 14 15 12 11 11 10 9 8 8 9 9 8 7 7 6 5 4 4 4 5 6 7 7 8 8 9 11 12 12 12 13 15 16 17
Wind_Direction
87 76 67 60 51 48 50 49 48 48 46 42 39 36 35 37 40 44 45 50 58 65 69 71 69 63 53 46 44 36 27 20 12 18 26 19 29 40 55 59 59 65 74 83 91 90 84 83 88
86 76 68 61 52 50 51 48 45 43 45 43 39 37 35 34 36 40 44 45 51 57 61 64 63 60 49 41 40 34 34 29 22 20 21 15 18 41 54 50 46 43 52 71 85 81 76 76 77
88 76 67 58 54 51 50 48 42 37 38 39 39 37 33 33 35 38 40 41 44 45 50 57 61 58 50 43 40 37 36 31 20 11 2 356 348 4 32 42 31 30 44 64 72 68 67 68 75
86 76 67 60 53 50 48 46 40 35 33 35 37 35 34 35 35 35 38 40 38 33 29 34 42 42 41 40 38 32 32 20 9 1 344 341 353 20 31 30 23 25 41 59 64 64 61 66 76
81 71 66 62 53 46 40 41 37 33 30 33 35 34 36 36 35 33 36 36 33 29 21 17 12 7 19 31 37 44 27 6 353 344 340 348 356 23 23 16 18 32 44 50 54 56 60 67 71
81 69 67 59 55 47 38 37 33 28 26 29 32 34 37 38 36 32 31 30 28 27 23 18 4 347 341 359 3 23 22 10 358 345 338 343 344 360 7 4 12 26 40 45 50 58 62 62 65
81 72 66 55 49 45 35 30 28 27 25 27 29 30 33 36 35 30 27 27 24 23 20 14 8 349 327 303 292 300 314 329 327 332 313 328 335 360 353 350 3 24 37 43 54 69 76 69 71
80 73 63 52 42 38 33 24 24 25 22 23 26 25 26 30 32 28 25 24 23 19 12 8 13 10 3 334 284 270 259 285 265 261 253 269 316 339 353 1 25 39 45 51 60 71 83 78 80
81 70 61 49 41 35 31 22 20 21 18 19 22 21 22 25 26 26 24 25 24 21 16 9 13 17 17 8 339 296 261 251 226 233 242 259 297 329 10 31 43 50 59 69 67 73 88 83 91
82 68 58 47 35 26 25 21 18 19 15 17 18 17 18 20 23 23 24 24 22 22 20 13 14 17 15 3 340 316 280 255 223 229 232 241 255 279 7 35 61 63 67 73 72 80 93 92 100
84 64 55 45 28 17 17 14 15 15 14 15 15 16 17 19 21 23 24 24 21 20 21 17 15 18 10 352 328 306 268 243 232 228 214 217 224 236 180 105 83 62 70 75 97 97 100 100 103
97 74 56 48 29 16 15 12 11 12 12 12 11 13 14 15 18 18 18 19 20 19 18 20 16 9 1 349 339 306 255 246 239 236 211 209 217 223 193 160 125 103 78 86 128 117 107 103 108
98 81 64 48 32 18 13 9 8 10 11 8 8 9 10 13 13 13 13 13 17 19 18 17 13 6 359 354 348 331 281 247 246 223 206 216 213 205 203 192 172 141 108 106 140 137 117 111 121
91 78 67 56 33 19 12 8 10 11 10 7 6 8 9 11 11 11 12 13 11 13 17 19 12 4 355 355 356 342 276 226 219 204 210 211 197 191 196 191 188 171 152 140 161 161 143 142 138
113 88 66 50 26 12 3 1 3 7 8 6 6 6 7 7 7 8 8 9 9 8 8 9 5 0 353 346 341 335 263 208 201 198 203 203 194 185 186 189 192 192 196 186 177 171 174 175 156
131 105 76 41 14 5 353 350 357 2 2 2 5 6 4 4 4 5 5 5 6 5 1 356 352 348 344 336 323 293 232 209 198 199 200 197 192 188 194 198 200 208 210 204 199 196 191 203 210
151 120 75 31 2 351 341 342 351 355 354 357 1 3 2 1 360 0 2 1 359 358 354 350 344 339 336 330 320 296 211 202 202 208 209 206 198 197 197 201 210 220 219 218 224 224 231 231 228
173 148 104 2 337 328 328 333 338 345 349 354 357 358 360 1 360 358 358 358 355 353 350 347 343 336 326 325 318 236 198 208 213 209 214 208 205 206 209 213 216 218 221 228 231 234 241 238 235
190 180 196 258 290 307 318 323 330 338 347 352 351 351 358 358 356 355 354 355 355 352 351 348 341 334 316 308 304 225 203 214 217 215 215 211 211 211 215 215 219 220 223 228 231 238 241 239 239
199 196 213 246 272 289 300 310 320 332 340 344 345 349 352 352 352 352 352 353 353 353 352 352 347 334 313 306 281 230 221 211 204 213 218 217 216 213 213 214 218 221 225 230 233 239 240 242 245
207 207 225 247 270 282 289 297 313 333 340 342 344 347 348 345 351 353 353 352 355 354 355 354 352 350 327 309 258 235 218 208 211 217 218 217 215 216 219 220 224 230 232 237 240 246 248 249 252
215 217 233 245 258 274 286 295 309 321 329 337 342 343 346 346 349 350 351 351 353 354 357 358 358 0 357 345 288 226 209 214 214 216 218 220 222 223 225 226 231 235 239 244 247 248 251 254 256
225 228 237 244 257 271 278 287 296 308 322 332 338 340 343 344 345 346 348 347 349 350 353 357 2 13 10 359 346 218 218 213 210 216 225 226 226 231 233 234 233 237 243 247 249 250 253 256 260
225 230 235 238 249 268 276 283 293 304 317 328 334 337 338 339 342 346 348 347 348 348 350 359 7 14 13 15 24 2 223 216 217 225 231 228 229 238 241 242 243 245 247 252 255 256 258 261 264
229 233 233 233 238 254 274 289 297 306 315 324 331 335 337 339 343 346 348 347 348 352 357 3 10 14 14 17 11 354 245 213 223 232 233 238 244 251 253 251 250 251 250 254 258 264 266 267 268
234 236 237 238 239 253 270 288 299 303 312 313 321 331 339 341 341 344 348 348 349 355 5 9 13 12 12 18 14 6 325 229 232 237 245 249 254 259 261 258 257 256 255 260 264 268 272 273 270
235 236 237 240 243 247 264 283 293 301 306 311 316 328 341 341 342 343 344 349 353 358 4 7 7 7 6 1 349 342 309 273 260 254 249 251 259 267 264 262 264 262 261 265 269 271 271 273 272
233 237 238 241 242 245 256 275 290 304 309 312 323 332 336 340 343 342 343 348 351 354 357 358 1 1 356 351 346 341 321 298 280 271 259 252 261 266 262 264 265 268 267 268 271 272 273 278 278
230 234 239 243 247 248 255 268 281 294 301 308 318 325 332 338 340 342 344 346 347 349 349 347 352 354 356 351 351 344 328 310 297 283 275 268 270 268 268 269 270 274 276 274 277 280 280 281 283
233 237 241 244 245 250 256 266 279 292 299 306 314 324 329 329 332 339 345 346 345 346 346 344 345 347 347 348 346 345 338 316 304 288 277 275 274 275 275 279 277 277 280 279 282 283 282 283 284
Height
5919 5918 5918 5918 5917 5916 5914 5914 5913 5913 5913 5911 5910 5910 5909 5908 5908 5909 5906 5905 5904 5904 5904 5904 5904 5904 5904 5904 5904 5904 5904 5904 5904 5903 5903 5903 5902 5902 5901 5901 5901 5900 5900 5899 5899 5899 5898 5898 5897
5921 5921 5921 5920 5918 5917 5916 5916 5915 5915 5914 5913 5913 5912 5911 5909 5908 5907 5906 5905 5905 5904 5904 5904 5904 5904 5905 5905 5905 5905 5904 5905 5904 5904 5904 5903 5903 5903 5902 5902 5901 5900 5900 5900 5900 5899 5899 5898 5898
5924 5923 5923 5921 5920 5919 5919 5918 5917 5916 5916 5915 5915 5914 5912 5911 5909 5908 5907 5906 5906 5905 5905 5905 5905 5905 5905 5905 5905 5905 5905 5905 5905 5905 5904 5904 5904 5903 5903 5902 5902 5901 5901 5900 5900 5900 5900 5899 5899
5927 5926 5924 5923 5922 5921 5921 5920 5920 5919 5918 5917 5916 5915 5914 5912 5910 5909 5908 5907 5906 5906 5906 5906 5905 5905 5905 5905 5905 5905 5905 5906 5905 5905 5905 5904 5904 5904 5904 5903 5902 5902 5901 5901 5901 5901 5900 5900 5899
5929 5927 5926 5924 5924 5923 5923 5923 5923 5922 5921 5919 5918 5917 5915 5912 5910 5909 5908 5907 5906 5906 5906 5906 5905 5905 5906 5906 5905 5906 5906 5906 5906 5905 5905 5905 5905 5904 5904 5903 5903 5902 5902 5902 5901 5901 5901 5900 5900
5931 5929 5928 5926 5926 5927 5926 5926 5926 5924 5923 5921 5919 5918 5916 5914 5912 5910 5909 5908 5907 5906 5906 5906 5905 5905 5905 5905 5905 5906 5906 5906 5906 5906 5906 5905 5905 5905 5904 5904 5904 5903 5903 5903 5902 5902 5901 5901 5901
5933 5931 5930 5929 5929 5929 5929 5928 5927 5925 5924 5922 5920 5919 5917 5916 5914 5912 5910 5909 5908 5907 5906 5906 5905 5905 5905 5905 5905 5905 5905 5906 5906 5906 5906 5906 5905 5905 5905 5905 5904 5904 5903 5903 5903 5903 5902 5902 5902
5933 5934 5932 5932 5932 5931 5931 5930 5929 5927 5925 5924 5921 5920 5918 5917 5915 5913 5911 5909 5908 5907 5906 5905 5905 5905 5904 5904 5905 5905 5905 5905 5906 5906 5906 5906 5905 5905 5905 5905 5905 5904 5904 5904 5904 5903 5903 5903 5902
5935 5936 5934 5934 5934 5934 5934 5933 5931 5929 5927 5925 5923 5921 5920 5917 5915 5913 5911 5910 5909 5907 5906 5905 5904 5904 5904 5904 5904 5904 5905 5905 5905 5905 5905 5906 5905 5905 5905 5905 5905 5905 5904 5904 5904 5904 5904 5903 5903
5937 5936 5937 5937 5936 5936 5935 5935 5932 5930 5929 5926 5924 5922 5920 5918 5916 5914 5912 5910 5909 5907 5906 5905 5904 5904 5903 5903 5903 5904 5904 5904 5904 5905 5905 5905 5905 5905 5905 5905 5905 5905 5905 5905 5905 5905 5905 5904 5904
5937 5938 5938 5938 5937 5937 5937 5935 5934 5933 5931 5929 5926 5924 5921 5919 5917 5915 5913 5911 5910 5908 5906 5906 5904 5904 5903 5903 5903 5903 5903 5903 5903 5904 5904 5905 5905 5905 5905 5905 5905 5905 5905 5905 5905 5905 5905 5905 5905
5938 5939 5939 5939 5939 5939 5938 5937 5935 5934 5932 5930 5927 5925 5922 5920 5918 5915 5914 5912 5911 5909 5907 5905 5904 5903 5903 5902 5902 5902 5902 5902 5902 5903 5903 5904 5904 5905 5905 5905 5905 5905 5906 5906 5905 5906 5906 5906 5906
5940 5940 5940 5940 5940 5940 5939 5938 5936 5935 5933 5930 5928 5925 5923 5920 5918 5916 5914 5912 5911 5909 5907 5906 5904 5903 5902 5901 5901 5901 5901 5901 5902 5902 5903 5903 5904 5905 5905 5905 5905 5906 5906 5906 5906 5906 5906 5906 5906
5941 5941 5941 5941 5941 5940 5940 5939 5937 5935 5933 5931 5929 5926 5923 5920 5918 5915 5913 5912 5910 5908 5906 5905 5904 5903 5902 5901 5900 5900 5900 5900 5901 5901 5902 5903 5904 5904 5905 5905 5905 5906 5906 5906 5906 5906 5906 5907 5907
5942 5942 5942 5942 5941 5941 5940 5940 5938 5936 5934 5932 5930 5927 5924 5921 5918 5916 5913 5911 5909 5907 5905 5904 5903 5902 5901 5900 5900 5899 5899 5899 5900 5901 5902 5902 5903 5904 5905 5905 5906 5906 5906 5906 5906 5906 5907 5907 5907
5942 5943 5942 5942 5941 5941 5942 5940 5939 5937 5935 5933 5930 5928 5925 5922 5919 5916 5914 5911 5909 5907 5905 5903 5902 5901 5900 5899 5899 5898 5899 5899 5900 5901 5901 5902 5903 5904 5904 5905 5905 5906 5906 5906 5906 5907 5907 5907 5907
5942 5942 5942 5942 5941 5941 5941 5939 5938 5937 5935 5933 5930 5928 5925 5922 5919 5917 5914 5911 5908 5906 5904 5902 5900 5899 5898 5898 5898 5898 5898 5899 5899 5900 5901 5902 5902 5903 5904 5904 5905 5905 5906 5906 5906 5907 5907 5907 5907
5941 5941 5941 5941 5941 5940 5940 5938 5937 5935 5934 5933 5930 5928 5925 5923 5920 5917 5914 5911 5908 5906 5903 5901 5899 5897 5896 5896 5896 5897 5897 5898 5899 5899 5900 5901 5902 5903 5903 5903 5904 5904 5905 5905 5906 5906 5906 5906 5906
5940 5940 5941 5941 5940 5940 5939 5937 5936 5934 5933 5932 5930 5928 5925 5923 5920 5917 5914 5911 5908 5905 5903 5900 5898 5896 5895 5895 5895 5895 5896 5897 5898 5898 5899 5900 5901 5902 5902 5903 5903 5904 5904 5904 5905 5906 5905 5906 5906
5939 5939 5940 5940 5939 5939 5938 5937 5935 5934 5932 5932 5930 5928 5925 5923 5920 5917 5914 5911 5908 5905 5902 5899 5897 5895 5894 5894 5894 5894 5895 5895 5897 5898 5898 5899 5900 5900 5901 5902 5902 5903 5903 5904 5904 5904 5905 5905 5905
5938 5938 5938 5938 5938 5937 5937 5936 5935 5934 5932 5931 5930 5928 5925 5922 5920 5917 5914 5911 5907 5904 5901 5899 5896 5894 5893 5893 5893 5894 5894 5895 5896 5897 5898 5898 5899 5899 5900 5901 5901 5902 5902 5903 5903 5903 5904 5904 5904
5936 5936 5936 5936 5937 5937 5936 5935 5934 5932 5931 5930 5929 5927 5925 5922 5919 5916 5913 5910 5907 5903 5901 5898 5896 5894 5893 5893 5892 5893 5893 5894 5895 5896 5896 5897 5897 5898 5898 5899 5900 5900 5901 5901 5901 5902 5902 5902 5902
5934 5934 5935 5935 5935 5935 5934 5934 5933 5931 5930 5929 5928 5926 5924 5921 5918 5915 5912 5909 5906 5903 5900 5898 5896 5894 5893 5892 5891 5892 5892 5893 5894 5894 5895 5895 5896 5896 5897 5897 5898 5898 5899 5899 5899 5900 5900 5900 5900
5931 5932 5933 5933 5933 5934 5933 5932 5931 5929 5929 5928 5927 5925 5923 5920 5917 5914 5911 5908 5905 5902 5900 5897 5896 5894 5893 5892 5891 5891 5891 5891 5892 5893 5893 5893 5894 5894 5895 5895 5896 5896 5896 5897 5897 5897 5898 5897 5897
5928 5930 5931 5931 5931 5931 5930 5929 5929 5928 5928 5927 5925 5923 5921 5918 5916 5913 5910 5907 5904 5901 5899 5898 5896 5894 5893 5891 5890 5890 5890 5890 5890 5891 5891 5891 5892 5893 5893 5893 5893 5894 5894 5894 5895 5895 5895 5894 5894
5925 5927 5929 5929 5929 5929 5928 5927 5927 5926 5926 5925 5923 5921 5919 5917 5915 5912 5909 5906 5904 5901 5899 5898 5896 5895 5893 5891 5890 5889 5889 5889 5890 5890 5890 5890 5890 5891 5891 5891 5891 5892 5892 5892 5892 5892 5892 5891 5891
5922 5923 5925 5926 5926 5926 5925 5925 5924 5924 5923 5922 5921 5919 5918 5916 5914 5911 5908 5906 5903 5901 5899 5898 5896 5895 5893 5892 5890 5889 5889 5889 5889 5888 5888 5888 5889 5889 5889 5889 5889 5889 5889 5889 5889 5889 5888 5888 5887
5919 5920 5921 5922 5923 5923 5923 5923 5923 5921 5921 5920 5918 5918 5916 5914 5912 5910 5907 5905 5903 5901 5899 5898 5896 5894 5892 5891 5890 5889 5888 5888 5887 5887 5887 5887 5887 5887 5887 5887 5887 5887 5886 5886 5886 5885 5885 5884 5883
5915 5917 5918 5919 5920 5920 5920 5922 5920 5920 5919 5918 5917 5915 5914 5911 5910 5908 5906 5904 5902 5900 5898 5897 5895 5893 5892 5890 5889 5888 5887 5886 5886 5885 5885 5885 5885 5885 5884 5884 5884 5884 5884 5883 5882 5882 5881 5880 5879
5911 5913 5914 5916 5917 5917 5917 5920 5917 5917 5916 5915 5915 5914 5913 5911 5909 5907 5905 5903 5901 5899 5898 5896 5895 5893 5891 5889 5888 5887 5886 5885 5884 5884 5883 5883 5883 5883 5882 5882 5881 5881 5880 5880 5879 5878 5877 5876 5875